{"data":{"norad_id":40544,"intl_designator":"2015-017A","name":"GSAT0203 (GALILEO 7)","alt_names":[],"object_type":"PAYLOAD","status":"ACTIVE","operator":null,"country":"ESA","launch_date":"2015-03-27","launch_site_code":"FRGUI","launch_vehicle":null,"mission":null,"orbit_class":"UNKNOWN","rcs_meters":8.4512,"size_class":null,"mass_kg":null,"dimensions":null,"purposes":["earth_obs","nav"],"wikipedia_slug":null,"has_3d_model":false,"image_url":null,"decayed_at":null,"tle_current":{"epoch":"2026-05-24T03:54:38.212128Z","epoch_age_seconds":161549,"freshness":"FRESH","line1":"1 40544U 15017A   26144.16294227 -.00000090  00000+0  00000+0 0  9999","line2":"2 40544  56.7947 342.2501 0002258 291.5829  68.4129  1.70476041 68797","mean_motion":1.70476041,"eccentricity":0.0002258,"inclination_deg":56.7947,"raan_deg":342.2501,"arg_perigee_deg":291.5829,"mean_anomaly_deg":68.4129,"bstar":0,"rev_number":6879,"period_min":844.69347807062,"perigee_km":23215.263101108,"apogee_km":23228.630498952,"semimajor_km":29600.08380003,"source":"CELESTRAK","updated_at":"2026-05-25T13:38:24.053289Z"}}}